Weather History for Dublin, GA

Change the Weather History Date:

Sunday, October 30, 2011

  Actual Average Record
Temperature  
Mean Temperature 47 °F -  
Max Temperature 62 °F 74 °F 86 °F (1940)
Min Temperature 32 °F 47 °F 25 °F (1952)
Degree Days  
Heating Degree Days 18    
Moisture  
Dew Point 33 °F    
Average Humidity 64    
Maximum Humidity 100    
Minimum Humidity 27    
Precipitation  
Precipitation 0.00 in - - ()
Sea Level Pressure  
Sea Level Pressure 30.25 in    
Wind  
Wind Speed 3 mph (ENE)    
Max Wind Speed 13 mph    
Max Gust Speed 18 mph    
Visibility 10 miles    
Events      
Averages and records for this station are not official NWS values.
T = Trace of Precipitation, MM = Missing Value Source: NWS Daily Summary

Daily Weather History Graph

Daily Weather History Graph

Search for Another Location

Airport:

Trip Planner

Search our weather history database for the weather conditions in past years. The results will help you decide how hot, cold, wet, or windy it might be!

Date:

Astronomy

Oct. 30, 2011 Rise Set
Actual Time 7:47 AM EDT 6:43 PM EDT
Civil Twilight 7:22 AM EDT 7:08 PM EDT
Nautical Twilight 6:53 AM EDT 7:37 PM EDT
Astronomical Twilight 6:24 AM EDT 8:06 PM EDT
Moon 11:56 AM EDT (10/30) 10:19 PM EDT (10/30)
Length of Visible Light 11h 46m
Length of Day
10h 55m
Waxing Crescent, 20% of the Moon is Illuminated
Oct 30
Waxing Crescent
Nov 2
First Quarter
Nov 10
Full
Nov 18
Last Quarter
Nov 25
New

Hourly Weather History & Observations

Time (EDT) Temp. Windchill Dew Point Humidity Pressure Visibility Wind Dir Wind Speed Gust Speed Precip Events Conditions
12:15 AM 42.8 °F - 37.4 °F 81% 30.18 in 10.0 mi Calm Calm - N/A   Clear
12:35 AM 41.0 °F - 37.4 °F 87% 30.19 in 10.0 mi Calm Calm - N/A   Clear
12:55 AM 39.2 °F - 37.4 °F 93% 30.19 in 10.0 mi Calm Calm - N/A   Clear
1:15 AM 37.4 °F - 37.4 °F 100% 30.20 in 10.0 mi Calm Calm - N/A   Clear
1:35 AM 41.0 °F - 35.6 °F 81% 30.19 in 10.0 mi Calm Calm - N/A   Clear
1:55 AM 41.0 °F 39.0 °F 35.6 °F 81% 30.19 in 10.0 mi NNE 3.5 mph - N/A   Clear
2:15 AM 42.8 °F 41.1 °F 35.6 °F 76% 30.19 in 10.0 mi NNE 3.5 mph - N/A   Clear
2:35 AM 42.8 °F - 35.6 °F 76% 30.20 in 10.0 mi Calm Calm - N/A   Clear
2:55 AM 41.0 °F - 35.6 °F 81% 30.20 in 10.0 mi Calm Calm - N/A   Clear
3:15 AM 39.2 °F - 35.6 °F 87% 30.21 in 10.0 mi Calm Calm - N/A   Clear
3:35 AM 39.2 °F 37.0 °F 35.6 °F 87% 30.21 in 10.0 mi NNE 3.5 mph - N/A   Clear
4:15 AM 41.0 °F 38.0 °F 35.6 °F 81% 30.20 in 10.0 mi NNE 4.6 mph - N/A   Clear
4:35 AM 41.0 °F 39.0 °F 35.6 °F 81% 30.20 in 10.0 mi NE 3.5 mph - N/A   Clear
4:55 AM 41.0 °F 38.0 °F 35.6 °F 81% 30.20 in 10.0 mi NNE 4.6 mph - N/A   Clear
5:15 AM 39.2 °F - 35.6 °F 87% 30.21 in 10.0 mi Calm Calm - N/A   Clear
5:35 AM 39.2 °F - 33.8 °F 81% 30.22 in 10.0 mi Calm Calm - N/A   Clear
5:55 AM 37.4 °F - 33.8 °F 87% 30.23 in 10.0 mi Calm Calm - N/A   Clear
6:15 AM 35.6 °F - 33.8 °F 93% 30.24 in 10.0 mi Calm Calm - N/A   Clear
6:35 AM 35.6 °F - 33.8 °F 93% 30.25 in 10.0 mi Calm Calm - N/A   Clear
6:55 AM 35.6 °F - 33.8 °F 93% 30.25 in 10.0 mi Calm Calm - N/A   Clear
7:15 AM 35.6 °F - 33.8 °F 93% 30.26 in 10.0 mi Calm Calm - N/A   Clear
7:35 AM 33.8 °F - 32.0 °F 93% 30.26 in 10.0 mi Calm Calm - N/A   Clear
7:55 AM 32.0 °F - 32.0 °F 100% 30.27 in 10.0 mi Calm Calm - N/A   Clear
8:15 AM 33.8 °F - 33.8 °F 100% 30.28 in 10.0 mi Calm Calm - N/A   Clear
8:35 AM 35.6 °F - 33.8 °F 93% 30.29 in 10.0 mi Calm Calm - N/A   Clear
8:55 AM 41.0 °F - 35.6 °F 81% 30.29 in 10.0 mi Calm Calm - N/A   Clear
9:15 AM 42.8 °F 41.1 °F 35.6 °F 76% 30.31 in 10.0 mi ENE 3.5 mph - N/A   Clear
9:35 AM 46.4 °F 43.5 °F 35.6 °F 66% 30.31 in 10.0 mi East 5.8 mph - N/A   Clear
9:55 AM 46.4 °F 42.4 °F 35.6 °F 66% 30.32 in 10.0 mi East 8.1 mph - N/A   Clear
10:15 AM 50.0 °F - 35.6 °F 58% 30.33 in 10.0 mi ENE 6.9 mph - N/A   Clear
10:35 AM 51.8 °F - 35.6 °F 54% 30.32 in 10.0 mi East 8.1 mph - N/A   Clear
10:55 AM 53.6 °F - 35.6 °F 51% 30.33 in 10.0 mi East 8.1 mph - N/A   Clear
11:15 AM 55.4 °F - 33.8 °F 44% 30.33 in 10.0 mi East 10.4 mph - N/A   Clear
11:35 AM 57.2 °F - 32.0 °F 38% 30.32 in 10.0 mi ENE 12.7 mph 16.1 mph N/A   Clear
11:55 AM 59.0 °F - 32.0 °F 36% 30.32 in 10.0 mi East 9.2 mph 18.4 mph N/A   Clear
12:15 PM 59.0 °F - 32.0 °F 36% 30.32 in 10.0 mi ENE 9.2 mph 18.4 mph N/A   Clear
12:35 PM 59.0 °F - 32.0 °F 36% 30.31 in 10.0 mi East 10.4 mph - N/A   Clear
12:55 PM 60.8 °F - 32.0 °F 34% 30.30 in 10.0 mi ENE 12.7 mph 16.1 mph N/A   Clear
1:15 PM 60.8 °F - 32.0 °F 34% 30.30 in 10.0 mi SE 8.1 mph 16.1 mph N/A   Clear
1:35 PM 60.8 °F - 30.2 °F 31% 30.28 in 10.0 mi East 8.1 mph - N/A   Clear
1:55 PM 62.6 °F - 30.2 °F 30% 30.27 in 10.0 mi ESE 9.2 mph - N/A   Clear
2:15 PM 62.6 °F - 30.2 °F 30% 30.26 in 10.0 mi Calm Calm - N/A   Clear
2:35 PM 62.6 °F - 30.2 °F 30% 30.26 in 10.0 mi SE 6.9 mph - N/A   Clear
2:55 PM 62.6 °F - 30.2 °F 30% 30.25 in 10.0 mi East 6.9 mph - N/A   Clear
3:15 PM 62.6 °F - 30.2 °F 30% 30.24 in 10.0 mi ENE 6.9 mph - N/A   Clear
3:35 PM 62.6 °F - 30.2 °F 30% 30.24 in 10.0 mi ENE 6.9 mph - N/A   Clear
3:55 PM 62.6 °F - 30.2 °F 30% 30.24 in 10.0 mi East 5.8 mph - N/A   Clear
4:15 PM 62.6 °F - 28.4 °F 27% 30.24 in 10.0 mi ESE 3.5 mph - N/A   Clear
4:35 PM 62.6 °F - 28.4 °F 27% 30.23 in 10.0 mi ESE 5.8 mph - N/A   Clear
4:55 PM 62.6 °F - 28.4 °F 27% 30.24 in 10.0 mi East 3.5 mph - N/A   Clear
5:15 PM 62.6 °F - 28.4 °F 27% 30.23 in 10.0 mi ESE 5.8 mph - N/A   Clear
5:35 PM 60.8 °F - 30.2 °F 31% 30.24 in 10.0 mi East 4.6 mph - N/A   Clear
5:55 PM 60.8 °F - 32.0 °F 34% 30.24 in 10.0 mi East 4.6 mph - N/A   Clear
6:15 PM 59.0 °F - 32.0 °F 36% 30.24 in 10.0 mi East 4.6 mph - N/A   Clear
6:35 PM 55.4 °F - 33.8 °F 44% 30.24 in 10.0 mi ENE 3.5 mph - N/A   Clear
6:55 PM 53.6 °F - 37.4 °F 54% 30.24 in 10.0 mi ENE 3.5 mph - N/A   Clear
7:15 PM 51.8 °F - 39.2 °F 62% 30.24 in 10.0 mi Calm Calm - N/A   Clear
7:35 PM 50.0 °F - 39.2 °F 66% 30.25 in 10.0 mi East 3.5 mph - N/A   Clear
7:55 PM 48.2 °F - 39.2 °F 71% 30.26 in 10.0 mi Calm Calm - N/A   Clear
8:15 PM 46.4 °F - 37.4 °F 71% 30.26 in 10.0 mi Calm Calm - N/A   Clear
8:35 PM 44.6 °F - 41.0 °F 87% 30.26 in 10.0 mi Calm Calm - N/A   Clear
8:55 PM 44.6 °F - 39.2 °F 81% 30.27 in 10.0 mi Calm Calm - N/A   Clear
9:15 PM 41.0 °F - 37.4 °F 87% 30.26 in 10.0 mi Calm Calm - N/A   Clear
9:35 PM 41.0 °F - 37.4 °F 87% 30.27 in 10.0 mi Calm Calm - N/A   Clear
9:55 PM 41.0 °F - 37.4 °F 87% 30.27 in 10.0 mi Calm Calm - N/A   Clear
10:15 PM 41.0 °F - 37.4 °F 87% 30.27 in 10.0 mi Calm Calm - N/A   Clear
10:35 PM 42.8 °F - 39.2 °F 87% 30.27 in 10.0 mi Calm Calm - N/A   Clear
10:55 PM 41.0 °F - 39.2 °F 93% 30.28 in 10.0 mi Calm Calm - N/A   Clear
11:15 PM 42.8 °F - 37.4 °F 81% 30.28 in 10.0 mi Calm Calm - N/A   Clear
11:35 PM 41.0 °F - 37.4 °F 87% 30.27 in 10.0 mi Calm Calm - N/A   Clear
11:55 PM 41.0 °F - 37.4 °F 87% 30.27 in 10.0 mi Calm Calm - N/A   Clear